Flag for Netherlands Weather past 2 weeks in Nijmegen, Netherlands

Now
30 °F

Ice fog.


Feels Like: 30 °F
Forecast: 39 / 63 °F
Wind: 2 mph from North

Location: Volkel

Current Time: Apr 19, 2015 at 7:26:28 AM

Latest Report: Apr 19, 2015 at 6:57 AM


Visibility: 3 mi

Pressure: 30.21 "Hg

Humidity: 100%

Dew point: 30 °F

Location of NijmegenLocation

Historic Weather in Nijmegen — Graph

°F

Nijmegen temperature yesterday

Maximum temperature yesterday: 59 °F (at 3:55 PM)
Minimum temperature yesterday: 34 °F (at 6:25 AM)
Average temperature yesterday: 48 °F

Past Weeks' High & Low Weather Summary

 TemperatureHumidityPressure
High75 °F (Apr 15, 3:55 PM)100% (Apr 5, 7:55 AM)30.63 "Hg (Apr 5, 7:55 AM)
Low30 °F (Apr 5, 7:25 AM)29% (Apr 10, 4:55 PM)29.92 "Hg (Apr 15, 6:55 PM)
Average49 °F72%30.26 "Hg
* Reported Apr 4 5:25 AM — Apr 19 5:55 AM, Nijmegen, Weather by CustomWeather, © 2015

Note: Actual official high and low records may vary slightly from our data, if they occured in-between our weather recording intervals... More about our weather records

Advertising

Nijmegen weather history for previous 24 hours

 ConditionsComfort  
Time TempWeatherWind HumidityBarometerVisibility
5:55 AM
Sun, Apr 19
34 °FChilly.1 mph100%30.21 "HgN/A
5:25 AM34 °FFog.1 mph100%30.21 "Hg5 mi
4:55 AM34 °FChilly.3 mph100%30.21 "HgN/A
4:25 AM37 °FClear.3 mph93%30.24 "HgN/A
3:55 AM37 °FChilly.3 mph93%30.24 "HgN/A
3:25 AM37 °FChilly.3 mph93%30.24 "HgN/A
2:55 AM39 °FChilly.3 mph87%30.24 "HgN/A
2:25 AM39 °FChilly.5 mph87%30.27 "HgN/A
1:55 AM39 °FChilly.5 mph93%30.27 "HgN/A
1:25 AM41 °FQuite cool.5 mph87%30.27 "HgN/A
12:55 AM43 °FQuite cool.5 mph81%30.27 "HgN/A
12:25 AM43 °FQuite cool.5 mph81%30.30 "HgN/A
11:55 PM
Sat, Apr 18
45 °FQuite cool.7 mph76%30.30 "HgN/A
11:25 PM46 °FCool.6 mph66%30.30 "HgN/A
10:55 PM46 °FCool.8 mph66%30.30 "HgN/A
10:25 PM48 °FCool.8 mph62%30.30 "HgN/A
9:55 PM48 °FCool.7 mph66%30.30 "HgN/A
9:25 PM50 °FCool.8 mph62%30.27 "HgN/A
8:55 PM52 °FCool.5 mph47%30.27 "HgN/A
8:25 PM52 °FCool.6 mph47%30.27 "HgN/A
7:55 PM55 °FRefreshingly cool.9 mph44%30.27 "HgN/A
7:25 PM55 °FClear.10 mph41%30.27 "HgN/A
6:55 PM57 °FPassing clouds.10 mph41%30.27 "HgN/A
6:25 PM57 °FRefreshingly cool.10 mph41%30.27 "HgN/A
5:55 PM57 °FRefreshingly cool.10 mph41%30.27 "HgN/A
5:25 PM57 °FRefreshingly cool.10 mph41%30.30 "HgN/A
4:55 PM57 °FRefreshingly cool.12 mph41%30.30 "HgN/A
4:25 PM57 °FPartly sunny.10 mph41%30.30 "HgN/A
3:55 PM59 °FPassing clouds.15 mph39%30.30 "HgN/A
3:25 PM57 °FScattered clouds.14 mph41%30.33 "HgN/A
2:55 PM57 °FPartly sunny.10 mph44%30.33 "HgN/A
2:25 PM57 °FPartly sunny.13 mph41%30.33 "HgN/A
1:55 PM57 °FScattered clouds.12 mph41%30.33 "HgN/A
1:25 PM57 °FScattered clouds.14 mph41%30.33 "HgN/A
12:55 PM54 °FPartly sunny.14 mph47%30.36 "HgN/A
12:25 PM55 °FBroken clouds.13 mph44%30.36 "HgN/A
11:55 AM55 °FPassing clouds.13 mph51%30.36 "HgN/A
11:25 AM54 °FCool.9 mph54%30.36 "HgN/A
10:55 AM52 °FCool.8 mph54%30.36 "HgN/A
10:25 AM50 °FCool.8 mph58%30.36 "HgN/A
9:55 AM48 °FCool.9 mph66%30.36 "HgN/A
9:25 AM46 °FCool.9 mph71%30.36 "HgN/A
8:55 AM45 °FQuite cool.6 mph81%30.36 "HgN/A
8:25 AM41 °FQuite cool.3 mph87%30.33 "HgN/A
7:55 AM37 °FChilly.5 mph93%30.33 "HgN/A
7:25 AM36 °FChilly.5 mph93%30.33 "HgN/A
Weather by CustomWeather, © 2015

See weather overviewHow to use our weather pages